Location: Baix
(44.7118°N, 4.7648°E)
Time: 15:37:11
(UTC+00:00)

Explorer 11/Cluster Stage 4 - Pass Details

Date: 29 November 2020
Orbit: 467 x 1258 km, 28.8° (Epoch: 14 January)

Event Time Altitude Azimuth Distance (km) Brightness Sun altitude
Rises 21:10:57 0° 226° (SW) 3,872 - -53.4°
Reaches altitude 10° 21:15:13 10° 205° (SSW) 2,748 - -54.1°
Maximum altitude 21:18:40 15° 173° (S) 2,266 - -54.6°
Drops below altitude 10° 21:21:49 10° 141° (SE) 2,442 - -55.1°
Sets 21:25:14 0° 117° (ESE) 3,197 - -55.6°
